Погода Шауляй

Поиск расширенной информации на нашем сайте:

Полезная информация:

Новости сайта



02.01.2020
Опубликован Долгосрочный прогноз погоды по городам России и ближнего зарубежья на январь 2020 года.
Карты: Прогноз на январь и февраль 2020 года, Сравнение прогнозируемой аномалии приземной температуры воздуха на январь 2020 года по разным моделям.




Погода Шауляй - сегодня

Время (UTC), дата Ветер
(°,м/с) 
Видим.   Явления Облачность Т
(°С)
Тd
(°С)
f(%) Тe
(°С)
Pmin
(гПа)
dP
(гПа)
Po
(мм)
O2
(г/м3)
Тmin Tmax R s Состояние
почвы
09 16.01.21 110 (В) 1-2{03}  12000 м  слаб. снег  8/8 1140 м 
[Sc]
-12.5 -14.7 84 -12  1014.8  0.5  750  318           
12 16.01.21 080 (В) 4-7{08}  9000 м  слаб. снег  9/8 400 м верхняя 
[Sc|Ci fib]
-14.2 -17.1 79 -19  1016  1.1  751  321      0.4  24   
15 16.01.21 050 (СВ) 1-2{07}  9000 м  дымка{снег}  ясно <0100 м 
-19 -21.1 83 -19  1018.3  753  328           
18 16.01.21 тихо () -1{03}  5000 м  дым{снег}  4/0 верхняя 
[Ci fib]
-20.6 -22.3 86 -21  1019.9  1.4  754  330    -12  0.4  23   
21 16.01.21 тихо () -1{01}  8000 м  дымка  ясно <0100 м 
-22.1 -24.1 84 -22  1020.5  0.4  754  332           
00 17.01.21 тихо () -1{02}  3400 м  дымка  ясно 
-22.4 -24.3 84 -22  1020.9  0.3  755  333        23   
03 17.01.21 320 (СЗ) 1-2{03}  0800 м  переохл. туман{снег} [диам. изморози 0 мм]  ?/?  
-20.6 -22 89 -21  1021.3  0.5  755  331           
06 17.01.21 310 (СЗ) 1-2{03}  2500 м  в посл. час туман{снег} [диам. изморози 3 мм]  10/10 100 м 
[St]
-18.5 -20.6 83 -19  1021.7  0.6  755  328  -23.3    0.0  23  равномерный
сухой снег
100% 
09 17.01.21 310 (СЗ) 1-2{03}  3800 м  дымка{туман}  1/0 верхняя 
[Ci fib]
-18.5 -20.7 83 -19  1022.9  1.2  756  328           
12 17.01.21 300 (СЗ) 1-1{02}  4000 м  дымка{снег, туман} [диам. изморози 3 мм]  ясно 
-15.4 -17.3 85 -15  1022.6  0.1  756  324      0.1  23   
15 17.01.21 250 (З) 1-1{03}  2500 м  дымка  ясно <0100 м 
-17.5 -19.6 84 -18  1022.9  0.1  756  327           
18 17.01.21 220 (ЮЗ) 1-1{01}  1600 м  дым  ясно 
-20.4 -22.6 82 -21  1023.3  0.2  756  331    -13.7  0.1  22   
21 17.01.21 180 (Ю) 1-1{02}  1500 м  дым  ясно <0100 м 
-21 -23.3 82 -21  1023.1  -0.2  756  332           
00 18.01.21 130 (ЮВ) 1-1{03}  7000 м  дымка  6/0 средняя 
[Ac trans]
-15.4 -17.2 86 -15  1022  -0.7  756  324        22   
03 18.01.21 190 (Ю) 2-3{03}  13000 м    10/10 1500 м 
[Sc]
-14.7 -16.5 86 -17  1021.3  -0.6  755  323           
06 18.01.21 210 (ЮЗ) 3-5{05}  9000 м  дымка  10/0 средняя 
[Ac As]
-13.9 -15.9 85 -17  1020.7  -0.7  755  322  -21.3      22  равномерный
сухой снег
100% 
09 18.01.21 210 (ЮЗ) 2-4{05}  6000 м  дымка  9/0 средняя 
[Ac As]
-12.9 -15.1 84 -15  1020.8  0.2  755  321           
12 18.01.21 190 (Ю) 2-4{05}  7000 м  дымка  10/3 420 м средняя 
[Sc|Ac As]
-11.3 -13.4 84 -13  1020.1  -0.7  754  318        22   
15 18.01.21 190 (Ю) 2-4{05}  6000 м  дымка  10/6 570 м средняя 
[Sc|Ac As]
-10.1 -11.9 87 -12  1019.1  -0.9  754  317           
18 18.01.21 200 (Ю) 2-4{06}  7000 м  дымка{снег}  10/10 330 м 
[St]
-9.7 -11.5 87 -11  1018.6  -0.5  753  316    -9.7  0.0  21   
21 18.01.21 200 (Ю) 3-5{05}  9000 м  дымка  10/10 270 м 
[St]
-9 -10.9 86 -12  1018.1  -0.5  753  315           
00 19.01.21 200 (Ю) 2-4{06}  9000 м  дымка  10/10 270 м 
[St]
-8.8 -10.6 87 -10  1017.5  -0.5  753  314        21   
03 19.01.21 190 (Ю) 2-5{06}  8000 м  дымка  10/10 420 м 
[Sc]
-8.9 -10.9 85 -11  1016.9  -0.7  752  314           
06 19.01.21 210 (ЮЗ) 3-6{06}  7000 м  слаб. снег  10/10 630 м 
[Ns]
-9.1 -11.4 83 -12  1016.8  0.1  752  315  -9.7    0.0  21  равномерный
сухой снег
100% 
09 19.01.21 210 (ЮЗ) 4-6{06}  8000 м  слаб. снег  10/10 660 м 
[Ns]
-8.7 -11.6 79 -12  1016.5  -0.2  752  314           
Время (UTC), дата Ветер
(°,м/с) 
Видим.   Явления Облачность Т
(°С)
Тd
(°С)
f(%) Тe
(°С)
Pmin
(гПа)
dP
(гПа)
Po
(мм)
O2
(г/м3)
Тmin Tmax R s Состояние
почвы

Для получения пояснительной информации подведите курсор к названию столбца.

ПОГОДА Шауляй - архив

Всё, что Вы хотите узнать о погоде Шауляй - удобно и подробно!

Выберите нужную дату (начиная с 1 января 2019* года) и нажмите кнопку "Найти".
Будут отображены архивные сводки погоды по пункту Шауляй, начиная с указанной даты.


Отображать данные в формате CSV (для использования в таблицах Excel)


Внимание! Наш архив погоды предназначен исключительно для личного некоммерческого использования в познавательных целях. Если Вам необходимы официальные справки о состоянии погоды (для производственных, юридических, коммерческих и т.п. целей), обращайтесь в органы Росгидромета.

*Примечание: данная дата относится к архиву по метеостанциям СССР (Россия, СНГ, Балтия).
Архив по метеостанциям Зарубежной Европы и Азии (кроме Китая) хранится 10 дней, по другим регионам земного шара (Китай, Африка, Америка, Австралия, Океания) - 1 день.

Шауляй - район местоположения метеостанции


Название, широта, долгота, высота метеостанции:
Шауляй 55.9°ш. 23.3°д. 107 м над ур. моря [Литва]

Дополнительная информация

В oтличие oт бoльшинства пoгoдных сайтoв мы публикуем пoдрoбную метеoинфoрмацию в детальнoм прoфессиoнальнoм фoрмате.

Характеристики температуры и влажнoсти вoздуха измеряются на высoте 2 м в тени вдали oт зданий и деревьев.
Скoрoсть ветра измеряется на высoте 10 м (на урoвне рoста челoвека скoрoсть ветра ниже в 1.5-2 раза). Если метеoстанция нахoдится в гoрoде или в лесу, тo скoрoсть ветра занижена на 2-4 м/с пo сравнению с oткрытым местoм. Скoрoсть ветра над акватoриями крупных рек и oзёр, а также на вершинах хoлмoв на 2-5 м/с выше, чем в oбычных услoвиях.
Атмoсфернoе давление в разных тoчках местнoсти мoжет значительнo oтличаться oт давления на метеoстанции, в зависимoсти oт услoвий рельефа (при пoдъёме на 10 м давление пoнижается примернo на 1 мм рт.ст.).